Simultaneous Nadir Overpasses (SNOs) Predictions

Prediction of SNOs between GOES-15 and METOP-B Satellite Orbit:

Table of predicted SNOs for the next 14.0 days since TLE Epoch: 5/20/2023
Index Date Time (GOES-15) GOES-15 Lat,Lon METOP-B Lat,Lon Distance(km) Time Diff (sec)
1 05/20/2023 19:24:48 -0.26,-150.40 -0.53,-149.17 139.84 80
2 05/22/2023 07:46:29 0.26,-151.07 -0.34,-153.80 310.48 80
3 05/23/2023 07:23:10 0.27,-151.51 0.84,-148.82 305.83 80
4 05/24/2023 19:44:42 -0.27,-152.17 0.02,-153.41 140.82 80
5 05/25/2023 19:21:24 -0.28,-152.61 -1.22,-148.44 475.35 80
6 05/27/2023 07:40:24 0.27,-153.27 0.30,-153.05 24.28 80
7 05/28/2023 20:01:56 -0.26,-153.93 0.55,-157.64 423.15 80
8 05/29/2023 19:38:37 -0.28,-154.36 -0.64,-152.66 192.60 80
9 05/31/2023 08:00:17 0.26,-155.01 -0.27,-157.28 258.96 80
10 06/01/2023 07:36:59 0.27,-155.43 0.98,-152.31 356.08 80
11 06/02/2023 19:58:30 -0.26,-156.08 -0.08,-156.89 92.85 80
